FW6766 Weather Reports


Display with metric or nautical units.
time (UTC)temp
F
wind
direction
speed
MPH
gust
MPH
rain 1hr
in
rain 24hr
in
rain mn
in
humidity
%
barometer
mb
20260905214516 92 0.0 1.0 0.00 0.00 0.00 60 1012.5
20260905213515 93 0.0 0.0 0.00 0.00 0.00 56 1012.5
20260905212517 94 23 1.0 3.0 0.00 0.00 0.00 54 1012.4
20260905211515 95 0.0 1.0 0.00 0.00 0.00 52 1012.6
20260905210516 96 225 1.0 3.0 0.00 0.00 0.00 44 1012.6
20260905205516 97 0.0 0.0 0.00 0.00 0.00 49 1012.8
20260905204516 98 338 1.0 3.0 0.00 0.00 0.00 46 1013.0
20260905203536 98 23 1.0 3.0 0.00 0.00 0.00 45 1013.1
20260905202516 98 45 1.0 3.0 0.00 0.00 0.00 44 1013.2
20260905201557 99 23 1.0 4.0 0.00 0.00 0.00 43 1013.5
20260905200516 99 23 1.0 4.0 0.00 0.00 0.00 42 1013.5
20260905195515 99 23 1.0 3.0 0.00 0.00 0.00 43 1013.6
20260905194515 99 113 1.0 3.0 0.00 0.00 0.00 42 1013.6
20260905193515 99 203 1.0 3.0 0.00 0.00 0.00 45 1013.7
20260905192517 99 180 1.0 3.0 0.00 0.00 0.00 43 1013.8
20260905191517 98 23 1.0 3.0 0.00 0.00 0.00 45 1014.0
20260905190539 98 0.0 3.0 0.00 0.00 0.00 42 1014.1
20260905185517 98 0.0 1.0 0.00 0.00 0.00 45 1014.4
20260905184517 98 45 1.0 3.0 0.00 0.00 0.00 45 1014.5
20260905183517 98 338 1.0 4.0 0.00 0.00 0.00 45 1014.7
20260905182517 97 45 1.0 3.0 0.00 0.00 0.00 48 1014.7
20260905181517 97 0.0 4.0 0.00 0.00 0.00 46 1014.9
20260905180517 97 0 1.0 2.0 0.00 0.00 0.00 45 1015.0
20260905175517 96 0.0 2.0 0.00 0.00 0.00 50 1015.0
20260905174559 97 23 2.0 5.0 0.00 0.00 0.00 49 1015.1
20260905173517 97 0 2.0 6.0 0.00 0.00 0.00 48 1015.3
20260905172537 97 0.0 2.0 0.00 0.00 0.00 50 1015.5
20260905171537 95 0.0 3.0 0.00 0.00 0.00 52 1015.6
20260905170517 95 0.0 2.0 0.00 0.00 0.00 52 1015.7
20260905165517 95 338 2.0 6.0 0.00 0.00 0.00 53 1015.9
20260905164518 94 225 1.0 6.0 0.00 0.00 0.00 54 1015.8
20260905163517 94 203 2.0 5.0 0.00 0.00 0.00 56 1016.0
20260905162517 93 0 1.0 4.0 0.00 0.00 0.00 56 1016.3
20260905161517 93 23 2.0 9.0 0.00 0.00 0.00 58 1016.4
20260905160517 92 0 1.0 4.0 0.00 0.00 0.00 60 1016.3
20260905155517 90 180 1.0 4.0 0.00 0.00 0.00 61 1016.4
20260905154517 90 158 1.0 5.0 0.00 0.00 0.00 63 1016.6
20260905153516 89 338 1.0 3.0 0.00 0.00 0.00 64 1016.6
20260905152638 87 225 2.0 4.0 0.00 0.00 0.00 69 1016.7
20260905151516 86 23 1.0 5.0 0.00 0.00 0.00 71 1016.6
20260905150517 84 0 1.0 4.0 0.00 0.00 0.00 72 1016.6
20260905145517 84 23 1.0 3.0 0.00 0.00 0.00 75 1016.7
20260905144517 83 203 1.0 4.0 0.00 0.00 0.00 75 1016.5
20260905143517 82 23 1.0 4.0 0.00 0.00 0.00 77 1016.7
20260905142517 81 23 1.0 3.0 0.00 0.00 0.00 78 1016.7
20260905141517 81 0 1.0 4.0 0.00 0.00 0.00 79 1016.8
20260905140517 80 23 2.0 5.0 0.00 0.00 0.00 79 1016.7
20260905135516 79 0.0 2.0 0.00 0.00 0.00 82 1016.6
20260905134516 78 0.0 3.0 0.00 0.00 0.00 84 1016.7
20260905133516 77 180 1.0 2.0 0.00 0.00 0.00 88 1016.7
20260905132537 76 180 1.0 3.0 0.00 0.00 0.00 90 1016.9
20260905131516 75 0.0 1.0 0.00 0.00 0.00 93 1017.0
20260905130516 75 0.0 0.0 0.00 0.00 0.00 95 1017.0
20260905125516 74 0.0 0.0 0.00 0.00 0.00 96 1017.0
20260905124516 74 0.0 0.0 0.00 0.00 0.00 96 1016.9
20260905123516 73 0.0 0.0 0.00 0.00 0.00 96 1016.8
20260905122516 73 0.0 0.0 0.00 0.00 0.00 95 1016.8
20260905121517 72 0.0 0.0 0.00 0.00 0.00 95 1016.7
20260905120516 72 0.0 0.0 0.00 0.00 0.00 95 1016.6
20260905115516 72 0.0 0.0 0.00 0.00 0.00 95 1016.7
20260905114516 72 0.0 0.0 0.00 0.00 0.00 94 1016.5
20260905113516 72 0.0 0.0 0.00 0.00 0.00 94 1016.3
20260905112516 72 0.0 0.0 0.00 0.00 0.00 94 1016.3
20260905111516 72 0.0 0.0 0.00 0.00 0.00 94 1016.2
20260905110517 72 0.0 0.0 0.00 0.00 0.00 94 1016.1
20260905105516 72 0.0 0.0 0.00 0.00 0.00 94 1016.2
20260905104516 72 0.0 0.0 0.00 0.00 0.00 94 1016.1
20260905103516 72 0.0 0.0 0.00 0.00 0.00 93 1015.9
20260905102536 72 0.0 0.0 0.00 0.00 0.00 94 1016.1
20260905101516 72 0.0 0.0 0.00 0.00 0.00 94 1016.1
20260905100516 72 0.0 0.0 0.00 0.00 0.00 94 1016.1
20260905095516 72 0.0 0.0 0.00 0.00 0.00 94 1016.0
20260905094537 72 0.0 0.0 0.00 0.00 0.00 93 1016.0
20260905093516 72 0.0 0.0 0.00 0.00 0.00 93 1016.0
20260905092516 72 0.0 0.0 0.00 0.00 0.00 93 1015.9
20260905091515 73 0.0 0.0 0.00 0.00 0.00 93 1015.8
20260905090515 73 0.0 0.0 0.00 0.00 0.00 93 1015.9
20260905085516 73 0.0 0.0 0.00 0.00 0.00 93 1016.0
20260905084536 73 0.0 0.0 0.00 0.00 0.00 93 1016.1
20260905083536 73 0.0 0.0 0.00 0.00 0.00 93 1016.0
20260905082515 73 0.0 0.0 0.00 0.00 0.00 93 1016.0
20260905081515 73 0.0 0.0 0.00 0.00 0.00 93 1016.1
20260905080515 73 0.0 0.0 0.00 0.00 0.00 93 1016.0
20260905075515 73 0.0 0.0 0.00 0.00 0.00 92 1016.2
20260905074515 73 0.0 0.0 0.00 0.00 0.00 92 1016.2
20260905073516 73 0.0 0.0 0.00 0.00 0.00 92 1016.1
20260905072516 73 0.0 0.0 0.00 0.00 0.00 91 1016.0
20260905071517 74 0.0 0.0 0.00 0.00 0.00 92 1016.0
20260905070517 74 0.0 0.0 0.00 0.00 0.00 91 1016.0
20260905065517 74 0.0 0.0 0.00 0.00 0.00 91 1016.1
20260905064517 74 0.0 0.0 0.00 0.00 0.00 90 1016.1
20260905063517 74 0.0 0.0 0.00 0.00 0.00 90 1016.0
20260905062518 74 0.0 0.0 0.00 0.00 0.00 90 1015.9
20260905061517 75 0.0 0.0 0.00 0.00 0.00 90 1015.9
20260905060517 75 0.0 0.0 0.00 0.00 0.00 90 1015.9
20260905055557 75 0.0 0.0 0.00 0.00 0.00 89 1015.9
20260905054517 75 0.0 0.0 0.00 0.00 0.00 89 1016.2
20260905053517 75 0.0 0.0 0.00 0.00 0.00 89 1016.3
20260905052538 75 0.0 0.0 0.00 0.00 0.00 88 1016.4
20260905051518 76 0.0 0.0 0.00 0.00 0.00 88 1016.7
20260905050517 76 0.0 0.0 0.00 0.00 0.00 88 1016.7
20260905045517 76 0.0 0.0 0.00 0.00 0.00 86 1016.8
20260905044517 77 0.0 0.0 0.00 0.00 0.00 85 1016.7
20260905043537 77 0.0 0.0 0.00 0.00 0.00 85 1016.8
20260905042517 77 0.0 0.0 0.00 0.00 0.00 85 1016.7
20260905041517 77 0.0 0.0 0.00 0.00 0.00 84 1016.7
20260905040518 77 0.0 0.0 0.00 0.00 0.00 84 1016.7
20260905035517 78 0.0 0.0 0.00 0.00 0.00 83 1016.7
20260905034517 78 0.0 0.0 0.00 0.00 0.00 83 1016.6
20260905033517 78 0.0 0.0 0.00 0.00 0.00 83 1016.8
20260905032517 78 0.0 0.0 0.00 0.00 0.00 83 1016.9
20260905031517 78 0.0 0.0 0.00 0.00 0.00 83 1017.0
20260905030517 78 0.0 0.0 0.00 0.00 0.00 83 1017.1
20260905025537 78 0.0 0.0 0.00 0.00 0.00 82 1017.1
20260905024517 79 0.0 0.0 0.00 0.00 0.00 82 1017.0
20260905023537 79 0.0 0.0 0.00 0.00 0.00 81 1017.0
20260905022516 79 0.0 0.0 0.00 0.00 0.00 81 1017.1
20260905021517 79 0.0 0.0 0.00 0.00 0.00 78 1017.1
20260905020517 79 0.0 0.0 0.00 0.00 0.00 79 1017.0
20260905015517 79 0.0 0.0 0.00 0.00 0.00 78 1016.9
20260905014516 79 0.0 0.0 0.00 0.00 0.00 76 1016.8
20260905013517 80 0.0 0.0 0.00 0.00 0.00 75 1016.9
20260905012516 80 0.0 0.0 0.00 0.00 0.00 75 1016.8
20260905011516 80 0.0 0.0 0.00 0.00 0.00 75 1016.7
20260905010517 81 0.0 0.0 0.00 0.00 0.00 74 1016.7
20260905005537 81 0.0 0.0 0.00 0.00 0.00 74 1016.7
20260905004517 81 0.0 0.0 0.00 0.00 0.00 73 1016.5
20260905003516 82 0.0 0.0 0.00 0.00 0.00 72 1016.5
20260905002516 82 0.0 0.0 0.00 0.00 0.00 71 1016.4
20260905001516 83 0.0 0.0 0.00 0.00 0.00 70 1016.4
20260905000516 84 0.0 0.0 0.00 0.00 0.00 71 1016.3
20260904235516 84 0.0 0.0 0.00 0.00 0.00 68 1016.2
20260904234516 85 0.0 0.0 0.00 0.00 0.00 66 1016.1
20260904233517 86 0.0 0.0 0.00 0.00 0.00 66 1016.1
20260904232536 86 0.0 0.0 0.00 0.00 0.00 63 1016.1
20260904231516 87 0.0 0.0 0.00 0.00 0.00 62 1016.2
20260904230516 88 0.0 2.0 0.00 0.00 0.00 61 1016.1
20260904225536 88 0.0 1.0 0.00 0.00 0.00 60 1015.9
20260904224516 89 0.0 1.0 0.00 0.00 0.00 59 1015.9
20260904223516 90 0.0 0.0 0.00 0.00 0.00 56 1015.9
20260904222557 91 0.0 2.0 0.00 0.00 0.00 56 1016.0
20260904221516 92 0.0 2.0 0.00 0.00 0.00 56 1016.0
20260904220516 92 0.0 1.0 0.00 0.00 0.00 54 1016.0
20260904215516 93 0.0 2.0 0.00 0.00 0.00 51 1015.9